Date String (YYYY-MM-DD hh:mm:ss) UTC,Instrument flags,Ambient pressure (hPa),Sample flow (lpm),Bypass flow (lpm),Sample temperature (°C),Ambient temperature (°C),ASC tube jacket temperature (°C),LED temperature (°C),Box temperature (°C),Sample RH (%),Span deviation,Mass concentration (μg/m³),Mass concentration (μg/m³),Mass concentration (μg/m³)
DateTimeUTC,F1_M11,P_M11,Q1_M11,Q2_M11,T1_M11,T2_M11,T3_M11,T4_M11,T5_M11,U1_M11,ZSPAN_M11,X0_M11,X2_M11,X1_M11
2023-01-23 16:00:00,,0828.3,5.00,0.00,22.4,20.9,00.0,31.1,24.1,15.3,-001.0,0014.71,0010.44,0010.18
2023-01-23 16:01:00,,0828.3,5.00,0.00,22.4,20.9,00.0,31.1,24.1,15.3,-000.8,0014.57,0010.46,0010.16
2023-01-23 16:02:00,,0828.4,5.00,0.00,22.3,20.8,00.0,31.1,24.1,15.2,-000.9,0013.96,0010.45,0010.16
2023-01-23 16:03:00,,0828.3,5.00,0.00,22.3,20.7,00.0,31.1,24.0,15.2,-001.3,0013.84,0010.40,0010.12
2023-01-23 16:04:00,,0828.3,5.00,0.00,22.3,20.6,00.0,31.1,24.0,15.3,-001.2,0013.84,0010.39,0010.10
2023-01-23 16:05:00,,0828.3,5.00,0.00,22.3,20.6,00.0,31.1,24.0,15.3,-001.3,0013.78,0010.39,0010.08
2023-01-23 16:06:00,,0828.3,4.99,0.00,22.3,20.5,00.0,31.1,23.9,15.4,-001.2,0013.76,0010.38,0010.08
2023-01-23 16:07:00,,0828.3,4.98,0.00,22.2,20.3,00.0,31.1,23.8,15.3,-001.0,0013.73,0010.37,0010.06
2023-01-23 16:08:00,,0828.3,5.00,0.00,22.1,20.1,00.0,31.0,23.7,15.3,-001.0,0013.71,0010.38,0010.07
2023-01-23 16:09:00,,0828.4,5.00,0.00,22.1,20.0,00.0,31.0,23.7,15.3,-001.3,0014.08,0010.34,0010.03
2023-01-23 16:10:00,,0828.3,5.02,0.00,22.1,20.3,00.0,31.0,23.7,15.4,-001.8,0014.66,0010.31,0009.99
2023-01-23 16:11:00,,0828.3,4.99,0.00,22.2,21.4,00.0,31.0,24.0,15.4,-001.7,0014.68,0010.31,0009.99
2023-01-23 16:12:00,,0828.3,5.00,0.00,22.3,22.3,00.0,31.0,24.2,15.3,-001.6,0014.68,0010.30,0009.99
2023-01-23 16:13:00,,0828.3,4.99,0.00,22.3,22.1,00.0,31.0,24.2,15.3,-001.6,0014.70,0010.29,0009.97
2023-01-23 16:14:00,,0828.4,5.01,0.00,22.3,21.6,00.0,31.0,24.2,15.3,-001.6,0014.69,0010.28,0009.95
2023-01-23 16:15:00,,0828.4,5.00,0.00,22.3,21.2,00.0,31.0,24.0,15.3,-001.7,0014.69,0010.24,0009.91
2023-01-23 16:16:00,,0828.4,5.00,0.00,22.3,20.8,00.0,31.0,23.9,15.3,-001.8,0014.79,0010.21,0009.88
2023-01-23 16:17:00,,0828.4,4.99,0.00,22.2,20.6,00.0,31.0,23.9,15.3,-001.8,0014.91,0010.15,0009.82
2023-01-23 16:18:00,,0828.4,5.01,0.00,22.2,20.5,00.0,31.0,23.8,15.4,-001.7,0014.82,0010.06,0009.70
2023-01-23 16:19:00,,0828.5,5.01,0.00,22.2,20.4,00.0,31.0,23.8,15.4,-001.6,0014.67,0009.93,0009.58
2023-01-23 16:20:00,,0828.5,5.00,0.00,22.1,20.3,00.0,31.0,23.8,15.5,-001.6,0014.13,0009.85,0009.52
2023-01-23 16:21:00,,0828.5,5.00,0.00,22.1,20.3,00.0,31.0,23.8,15.5,-001.6,0013.47,0009.79,0009.45
2023-01-23 16:22:00,,0828.5,5.02,0.00,22.1,20.2,00.0,31.0,23.7,15.5,-001.7,0013.44,0009.75,0009.40
2023-01-23 16:23:00,,0828.5,5.00,0.00,22.0,20.2,00.0,31.0,23.7,15.5,-001.9,0013.58,0009.69,0009.35
2023-01-23 16:24:00,,0828.5,5.00,0.00,22.0,20.1,00.0,30.9,23.7,15.5,-001.6,0013.51,0009.63,0009.30
2023-01-23 16:25:00,,0828.4,5.00,0.00,22.0,20.1,00.0,30.9,23.6,15.6,-001.4,0013.84,0009.63,0009.29
2023-01-23 16:26:00,,0828.4,4.98,0.00,22.0,20.1,00.0,30.9,23.6,15.6,-001.5,0013.93,0009.64,0009.31
2023-01-23 16:27:00,,0828.5,4.99,0.00,21.9,20.0,00.0,30.9,23.6,15.6,-001.7,0013.91,0009.69,0009.37
2023-01-23 16:28:00,,0828.5,5.01,0.00,21.9,20.1,00.0,30.8,23.6,15.7,-001.7,0013.81,0009.73,0009.43
2023-01-23 16:29:00,,0828.5,5.00,0.00,21.9,20.1,00.0,30.8,23.6,15.7,-001.3,0013.70,0009.82,0009.54
2023-01-23 16:30:00,,0828.5,5.00,0.00,21.9,20.3,00.0,30.8,23.6,15.7,-001.2,0013.83,0009.94,0009.66
2023-01-23 16:31:00,,0828.5,5.01,0.00,22.0,21.4,00.0,30.8,23.8,15.6,-001.2,0013.95,0010.06,0009.78
2023-01-23 16:32:00,,0828.4,4.99,0.00,22.1,22.5,00.0,30.8,24.1,15.5,-000.9,0014.08,0010.15,0009.87
2023-01-23 16:33:00,,0828.5,4.98,0.00,22.2,22.5,00.0,30.9,24.2,15.5,-000.4,0014.32,0010.26,0009.99
2023-01-23 16:34:00,,0828.5,5.02,0.00,22.2,22.1,00.0,30.9,24.2,15.5,-000.2,0014.46,0010.37,0010.10
2023-01-23 16:35:00,,0828.5,5.01,0.00,22.3,21.7,00.0,30.9,24.1,15.4,-000.2,0014.32,0010.49,0010.23
2023-01-23 16:36:00,,0828.4,5.03,0.00,22.2,21.3,00.0,30.9,24.0,15.4,-000.5,0014.51,0010.63,0010.38
2023-01-23 16:37:00,,0828.5,5.01,0.00,22.2,21.0,00.0,30.9,24.0,15.4,-000.2,0014.37,0010.74,0010.49
2023-01-23 16:38:00,,0828.5,4.99,0.00,22.2,20.8,00.0,30.9,23.9,15.5,0000.1,0014.47,0010.86,0010.58
2023-01-23 16:39:00,,0828.5,5.00,0.00,22.2,20.7,00.0,30.9,23.9,15.4,0000.1,0014.66,0010.94,0010.64
2023-01-23 16:40:00,,0828.5,5.00,0.00,22.2,20.6,00.0,30.9,23.9,15.4,0000.3,0014.76,0011.01,0010.70
2023-01-23 16:41:00,,0828.5,5.00,0.00,22.2,20.6,00.0,30.9,23.9,15.4,0000.4,0014.90,0011.07,0010.77
2023-01-23 16:42:00,,0828.5,5.01,0.00,22.2,20.6,00.0,30.9,23.9,15.5,0000.9,0015.01,0011.14,0010.84
2023-01-23 16:43:00,,0828.5,5.01,0.00,22.2,20.6,00.0,30.9,23.9,15.4,0000.7,0015.39,0011.20,0010.90
2023-01-23 16:44:00,,0828.4,5.00,0.00,22.1,20.5,00.0,30.9,23.9,15.4,0000.1,0015.41,0011.20,0010.89
2023-01-23 16:45:00,,0828.5,5.00,0.00,22.1,20.5,00.0,30.9,23.8,15.4,-000.0,0015.43,0011.18,0010.87
2023-01-23 16:46:00,,0828.4,4.99,0.00,22.1,20.5,00.0,30.9,23.8,15.3,0000.1,0015.48,0011.16,0010.85
2023-01-23 16:47:00,,0828.4,5.00,0.00,22.1,20.5,00.0,30.9,23.8,15.4,0000.1,0015.71,0011.15,0010.85
2023-01-23 16:48:00,,0828.4,5.01,0.00,22.1,20.6,00.0,30.9,23.8,15.4,-000.4,0016.08,0011.13,0010.82
2023-01-23 16:49:00,,0828.3,5.00,0.00,22.1,20.6,00.0,30.9,23.9,15.3,-000.4,0016.02,0011.02,0010.73
2023-01-23 16:50:00,,0828.3,5.00,0.00,22.1,20.7,00.0,30.9,23.9,15.3,0000.2,0015.73,0010.86,0010.61
2023-01-23 16:51:00,,0828.3,4.99,0.00,22.1,20.7,00.0,30.9,23.9,15.1,-000.1,0015.53,0010.71,0010.46
2023-01-23 16:52:00,,0828.3,5.00,0.00,22.1,20.8,00.0,30.9,23.9,15.1,-000.7,0015.26,0010.55,0010.31
2023-01-23 16:53:00,,0828.3,5.02,0.00,22.1,20.8,00.0,30.9,23.9,15.2,-001.3,0015.15,0010.45,0010.19
2023-01-23 16:54:00,,0828.3,5.00,0.00,22.1,20.7,00.0,30.9,23.9,15.2,-001.5,0014.79,0010.38,0010.10
2023-01-23 16:55:00,,0828.3,5.00,0.00,22.1,20.7,00.0,30.9,23.9,15.2,-001.2,0014.65,0010.36,0010.08
2023-01-23 16:56:00,,0828.3,5.00,0.00,22.1,20.7,00.0,30.9,23.9,15.3,-001.4,0014.50,0010.31,0010.04
2023-01-23 16:57:00,,0828.3,5.01,0.00,22.1,20.6,00.0,30.9,23.8,15.3,-001.7,0014.43,0010.30,0010.02
2023-01-23 16:58:00,,0828.3,5.03,0.00,22.1,20.5,00.0,30.9,23.8,15.3,-001.5,0014.16,0010.26,0009.98
2023-01-23 16:59:00,,0828.3,4.99,0.00,22.1,20.4,00.0,30.9,23.8,15.3,-000.1,0013.72,0010.26,0009.97
